Location: Le Pont-de-Coulogne
(50.9242°N, 1.8700°E)
Time: 05:45:47
(UTC+00:00)

Cosmos 1536 - Pass Details

Date: 15 May 2026
Orbit: 482 x 500 km, 82.5° (Epoch: 6 June)

Event Time Altitude Azimuth Distance (km) Brightness Sun altitude
Rises 21:30:11 0° 358° (N) 2,571 7.3 -13.7°
Reaches altitude 10° 21:32:33 10° 12° (NNE) 1,687 6.0 -13.9°
Maximum altitude 21:35:42 26° 71° (ENE) 996 4.0 -14.2°
Enters shadow 21:37:14 20° 109° (ESE) 1,197 4.1 -14.3°
